Погода в Пензе

Россия / Пензенская область     53˚11′42″N   45˚01′05″E
темп.,
°C
ветер,
м/с
пор.,
м/с
влажн.,
%
обл.,
%
осадки,
мм/ч
давл.,
гПа
погр.,
м
5 декабря, сб
сб500:00−12˚юв22830 0.0 104545
03:00−12˚юв12830 0.0 104520
06:00−12˚юв12860 0.0 104520
09:00−11˚юв12840 0.0 104526
12:00−8˚юв12740 0.0 1045170
15:00−8˚вюв11798 0.0 104521
18:00−10˚вюв11810 0.0 104521
21:00−10˚вюв11810 0.0 104621
6 декабря, вс
вс600:00−10˚вюв11810 0.0 104621
03:00−10˚в11800 0.0 104621
06:00−10˚вюв11801 0.0 104621
09:00−10˚в11780 0.0 104721
12:00−7˚вюв12710 0.0 1046147
15:00−8˚ююв01770 0.0 104621
18:00−9˚в00810 0.0 104621
21:00−9˚всв00820 0.0 104721
7 декабря, пн
пн700:00−10˚ссв00820 0.0 104621
03:00−10˚с11820 0.0 104621
06:00−10˚с12800 0.0 104521
09:00−9˚с12750 0.0 104521
12:00−6˚с12730 0.0 1045107
15:00−7˚с22770 0.0 104425
18:00−8˚ссв22780 0.0 104321
21:00−9˚ссв22780 0.0 104321
8 декабря, вт
вт800:00−9˚ссв117720 0.0 104321
03:00−8˚св227714 0.0 104321
06:00−9˚св22780 0.0 104221
09:00−8˚св12770 0.0 104321
12:00−5˚св13720 0.0 1042104
15:00−6˚всв22760 0.0 104221
18:00−8˚в12790 0.0 104221
21:00−8˚всв12800 0.0 104321
9 декабря, ср
ср900:00−9˚в22800 0.0 104221
03:00−9˚вюв12830 0.0 104321
06:00−10˚вюв11910 0.0 104221
09:00−9˚в12951 0.0 104237
12:00−6˚вюв249039 0.0 1042236
15:00−6˚юв129449 0.0 104221
18:00−8˚юв129778 0.0 104221
21:00−9˚юв229649 0.0 104275